OneWeb SL0695

operational
NORAD ID: 61602 Int'l Des: 2024-188 Owner: ONEWEBE Country: UK Constellation: oneweb
LEOCIRCULARPOLARONEWEB_TYPE

About OneWeb SL0695

Description loading...

Live Position

Loading 3D Globe...

Upcoming Passes

Altitude History

Altitude vs Time

uPlot chart will show altitude changes over time

Two-Line Element Set

1 61602U 24188J 25298.88510345 .00000523 00000-0 14396-2 0 9993
2 61602 87.8832 67.7443 0002100 88.6223 271.5146 13.11418069 53756
Epoch: Oct 25, 2025 • Age: 9 hours

Current Status

Altitude 1247.2 km
Velocity 7.23 km/s
Sub-Earth Point -78.20°S, 67.33°W
Launch Date Oct 20, 2024
Age 1 years
Type internet

Technical Details

Classification Payload
Mass 148.00 kg
Dry Mass 140.00 kg
Total Mass 148.00 kg
Length 1.30 m
Diameter 1.00 m
Span 5.00 m
Shape Trapezoid+2 pan
Manufacturer ONEWUS
Bus Type ARROW
Phase Status In Orbit
Owner/State ONEWEBE/UK

Large Constellations

Loading constellations...